This is the latest recevied weather packets stored in our database for station/object KS5S. If no packets are shown the sender has not sent any weather packets the latest 10 day(s).
| Time | Temp. | Humidity | Pressure | Rain* | Wind** | Luminosity | Snow |
|---|---|---|---|---|---|---|---|
| 1777897868 | 16.67° C | 85% | 1011.2 hPa | 0 mm | - | 56 W/m² | - |
| 1777897564 | 16.67° C | 85% | 1011.2 hPa | 0 mm | - | 47 W/m² | - |
| 1777897259 | 16.67° C | 86% | 1011.1 hPa | 0 mm | - | 43 W/m² | - |
| 1777896955 | 16.11° C | 86% | 1010.9 hPa | 0 mm | - | 36 W/m² | - |
| 1777896652 | 16.11° C | 86% | 1011 hPa | 0 mm | - | 30 W/m² | - |
| 1777896349 | 16.11° C | 86% | 1011.1 hPa | 0 mm | - | 21 W/m² | - |
| 1777896048 | 16.11° C | 87% | 1011 hPa | 0 mm | - | 18 W/m² | - |
| 1777895745 | 16.11° C | 87% | 1010.9 hPa | 0 mm | - | 14 W/m² | - |
| 1777895442 | 16.11° C | 87% | 1010.8 hPa | 0 mm | - | 11 W/m² | - |
| 1777895140 | 16.11° C | 87% | 1010.8 hPa | 0 mm | - | 7 W/m² | - |
| 1777894837 | 15.56° C | 87% | 1010.8 hPa | 0 mm | - | 4 W/m² | - |
| 1777894534 | 15.56° C | 87% | 1011 hPa | 0 mm | - | 2 W/m² | - |
| 1777894232 | 16.11° C | 87% | 1011.2 hPa | 0 mm | - | 1 W/m² | - |
| 1777893928 | 15.56° C | 87% | 1010.9 hPa | 0 mm | - | 0 W/m² | - |
| 1777893624 | 16.11° C | 86% | 1010.9 hPa | 0 mm | - | 0 W/m² | - |
| 1777893321 | 16.11° C | 86% | 1011 hPa | 0 mm | - | 0 W/m² | - |
| 1777893017 | 16.11° C | 86% | 1010.9 hPa | 0 mm | - | 0 W/m² | - |
| 1777892715 | 15.56° C | 87% | 1011 hPa | 0 mm | - | 0 W/m² | - |
| 1777892410 | 15.56° C | 86% | 1011.2 hPa | 0 mm | - | 0 W/m² | - |
| 1777892106 | 15.56° C | 86% | 1011.1 hPa | 0 mm | - | 0 W/m² | - |
| 1777891803 | 15.56° C | 86% | 1011.2 hPa | 0 mm | - | 0 W/m² | - |
| 1777891500 | 15.56° C | 86% | 1011.2 hPa | 0 mm | - | 0 W/m² | - |
| 1777891196 | 15.56° C | 86% | 1011.2 hPa | 0 mm | - | 0 W/m² | - |
| 1777890896 | 15.56° C | 86% | 1011.2 hPa | 0 mm | - | 0 W/m² | - |
| 1777890592 | 15.56° C | 86% | 1011.4 hPa | 0 mm | - | 0 W/m² | - |
* Rain latest hour (hover to see other rain measurements)
** Current wind speed in m/s (hover to see current wind gust speed)